Weather History for TNCC - January, 2014

Change the Weather History Date:

Friday, January 31, 2014

  Actual Average (WUND) Record (WUND)
Temperature  
Mean Temperature 80 °F -  
Max Temperature 85 °F 84 °F - (-1)
Min Temperature 76 °F 75 °F - (-1)
Cooling Degree Days 16    
Growing Degree Days 30 (Base 50)    
Moisture  
Dew Point 70 °F    
Average Humidity 70    
Maximum Humidity 78    
Minimum Humidity 55    
Precipitation  
Precipitation 0.00 in 0.04 in - ()
Sea Level Pressure  
Sea Level Pressure 29.94 in    
Wind  
Wind Speed 14 mph ()    
Max Wind Speed 17 mph    
Max Gust Speed -    
Visibility 8.5 miles    
Events      
Averages and records for this station are not official NWS values.
T = Trace of Precipitation, MM = Missing Value Source: Averaged Metar Reports

Daily Weather History Graph

Daily Weather History Graph

Search for Another Location

Airport or City:

Trip Planner

Search our weather history database for the weather conditions in past years. The results will help you decide how hot, cold, wet, or windy it might be!

Date:

Astronomy

Jan. 31, 2014 Rise Set
Actual Time 7:01 AM AST 6:37 PM AST
Civil Twilight 6:39 AM AST 6:59 PM AST
Nautical Twilight 6:13 AM AST 7:25 PM AST
Astronomical Twilight 5:48 AM AST 7:50 PM AST
Moon 7:25 AM AST (1/31) 7:35 PM AST (1/31)
Length of Visible Light 12h 20m
Length of Day
11h 36m
New Moon, 1% of the Moon is Illuminated
Jan 31
New Moon
Feb 6
First Quarter
Feb 14
Full
Feb 22
Last Quarter
Mar 1
New

Hourly Weather History & Observations

Time (AST) Temp. Heat Index Dew Point Humidity Pressure Visibility Wind Dir Wind Speed Gust Speed Precip Events Conditions
12:00 AM 77.0 °F - 69.8 °F 78% 29.95 in 6.2 mi East 15.0 mph - N/A   Partly Cloudy
1:00 AM 77.0 °F - 69.8 °F 78% 29.95 in 6.2 mi East 15.0 mph - N/A   Partly Cloudy
2:00 AM 77.0 °F - 69.8 °F 78% 29.92 in 6.2 mi East 15.0 mph - N/A   Partly Cloudy
3:00 AM 77.0 °F - 69.8 °F 78% 29.92 in 6.2 mi East 12.7 mph - N/A   Partly Cloudy
4:00 AM 77.0 °F - 69.8 °F 78% 29.92 in 6.2 mi East 15.0 mph - N/A   Partly Cloudy
5:00 AM 78 °F - 71 °F 72% 29.91 in 16 mi East 13.8 mph - -   Scattered Clouds
5:00 AM 77.0 °F - 69.8 °F 78% 29.89 in 6.2 mi ESE 16.1 mph - N/A   Partly Cloudy
6:00 AM 77.0 °F - 69.8 °F 78% 29.92 in 6.2 mi ESE 15.0 mph - N/A   Partly Cloudy
7:00 AM 77.0 °F - 68.0 °F 74% 29.95 in 6.2 mi ESE 13.8 mph - N/A   Partly Cloudy
8:00 AM 79 °F - 69 °F 65% 29.97 in 16 mi ESE 15.0 mph - -   Scattered Clouds
8:00 AM 78.8 °F - 68.0 °F 69% 29.95 in 6.2 mi ESE 15.0 mph - N/A   Partly Cloudy
9:00 AM 78.8 °F - 69.8 °F 74% 29.98 in 6.2 mi East 15.0 mph - N/A   Partly Cloudy
10:00 AM 82.4 °F 86.3 °F 69.8 °F 66% 30.01 in 6.2 mi ESE 16.1 mph - N/A   Partly Cloudy
11:00 AM 84 °F - 71 °F 57% 30.00 in 19 mi East 16.1 mph - -   Scattered Clouds
11:00 AM 84.2 °F 89.6 °F 71.6 °F 66% 30.01 in 6.2 mi East 16.1 mph - N/A   Partly Cloudy
12:00 PM 82.4 °F 86.3 °F 69.8 °F 66% 29.98 in 6.2 mi East 15.0 mph - N/A   Partly Cloudy
1:00 PM 84.2 °F 87.3 °F 68.0 °F 58% 29.95 in 6.2 mi East 17.3 mph - N/A   Scattered Clouds
2:00 PM 83 °F - 69 °F 55% 29.94 in 16 mi East 16.1 mph - -   Partly Cloudy
2:00 PM 84.2 °F 87.3 °F 68.0 °F 58% 29.92 in 6.2 mi East 16.1 mph - N/A   Scattered Clouds
3:00 PM 84.2 °F 87.3 °F 68.0 °F 58% 29.92 in 6.2 mi East 16.1 mph - N/A   Scattered Clouds
4:00 PM 82.4 °F 86.3 °F 69.8 °F 66% 29.89 in 6.2 mi East 16.1 mph - N/A   Scattered Clouds
5:00 PM 81 °F - 69 °F 60% 29.91 in 16 mi ESE 16.1 mph - -   Scattered Clouds
5:00 PM 80.6 °F 83.9 °F 69.8 °F 70% 29.89 in 6.2 mi ESE 16.1 mph - N/A   Partly Cloudy
6:00 PM 80.6 °F 83.9 °F 69.8 °F 70% 29.92 in 6.2 mi East 12.7 mph - N/A   Scattered Clouds
7:00 PM 78.8 °F - 69.8 °F 74% 29.92 in 6.2 mi East 15.0 mph - N/A   Partly Cloudy
8:00 PM 78 °F - 70 °F 70% 29.95 in 16 mi East 16.1 mph - -   Partly Cloudy
8:00 PM 78.8 °F - 69.8 °F 74% 29.95 in 6.2 mi East 16.1 mph - N/A   Scattered Clouds
9:00 PM 78.8 °F - 71.6 °F 78% 29.95 in 6.2 mi East 13.8 mph - N/A   Scattered Clouds
10:00 PM 78.8 °F - 69.8 °F 74% 29.95 in 6.2 mi East 15.0 mph - N/A   Scattered Clouds
11:00 PM 78 °F - 70 °F 71% 29.97 in 16 mi East 15.0 mph - -   Partly Cloudy
11:00 PM 78.8 °F - 69.8 °F 74% 29.95 in 6.2 mi East 15.0 mph - N/A   Partly Cloudy